QPF
0.00 0.00 0.00 0.00 0.00 0.00 0.00 0.00 0.00 0.00 0.00 0.00 0.00 0.00 0.00 0.00 0.00 0.00 0.00 0.00 0.00 0.00 0.00 0.00 0.00 0.00 0.00 0.00 0.00 0.00 0.00 0.00 0.00 0.00 0.00 0.00 0.00 0.00 0.00 0.00 0.01 0.01 0.02 0.01
0.00 0.00 0.00 0.00 0.00 0.00 0.00 0.00 0.00 0.00 0.00 0.00 0.00 0.00 0.00 0.00 0.00 0.00 0.00 0.00 0.00 0.00 0.00 0.00 0.00 0.00 0.00 0.00 0.00 0.00 0.00 0.00 0.00 0.00 0.00 0.00 0.00 0.00 0.00 0.00 0.00 0.00 0.00 0.00
0.00 0.00 0.00 0.00 0.00 0.00 0.00 0.00 0.00 0.00 0.00 0.00 0.00 0.00 0.00 0.00 0.00 0.00 0.00 0.00 0.00 0.00 0.00 0.00 0.00 0.00 0.00 0.00 0.00 0.00 0.00 0.00 0.00 0.00 0.00 0.00 0.00 0.00 0.00 0.00 0.00 0.00 0.00 0.00
0.00 0.00 0.00 0.00 0.00 0.00 0.00 0.00 0.00 0.00 0.00 0.00 0.00 0.00 0.00 0.00 0.00 0.00 0.00 0.00 0.00 0.00 0.00 0.00 0.00 0.00 0.00 0.00 0.00 0.00 0.00 0.00 0.00 0.00 0.00 0.00 0.00 0.00 0.00 0.00 0.00 0.00 0.00 0.00
0.00 0.00 0.00 0.00 0.00 0.00 0.00 0.00 0.00 0.00 0.00 0.00 0.00 0.00 0.00 0.00 0.00 0.00 0.00 0.00 0.00 0.00 0.00 0.00 0.00 0.00 0.00 0.00 0.00 0.00 0.00 0.00 0.00 0.00 0.00 0.00 0.00 0.00 0.00 0.00 0.00 0.00 0.00 0.00
0.00 0.00 0.00 0.00 0.00 0.00 0.00 0.00 0.00 0.00 0.00 0.00 0.00 0.00 0.00 0.00 0.00 0.00 0.00 0.00 0.00 0.00 0.00 0.00 0.00 0.00 0.00 0.00 0.00 0.00 0.00 0.00 0.00 0.00 0.00 0.00 0.00 0.00 0.00 0.00 0.00 0.00 0.00 0.00
0.00 0.00 0.00 0.00 0.00 0.00 0.00 0.00 0.00 0.00 0.00 0.00 0.00 0.00 0.00 0.00 0.00 0.00 0.00 0.00 0.00 0.00 0.00 0.00 0.00 0.00 0.00 0.00 0.00 0.00 0.00 0.00 0.00 0.00 0.00 0.00 0.00 0.00 0.00 0.00 0.00 0.00 0.00 0.00
0.00 0.00 0.00 0.00 0.00 0.00 0.00 0.00 0.00 0.00 0.00 0.00 0.00 0.00 0.00 0.00 0.00 0.00 0.00 0.00 0.00 0.00 0.00 0.00 0.00 0.00 0.00 0.00 0.00 0.00 0.00 0.00 0.00 0.00 0.00 0.00 0.00 0.00 0.00 0.00 0.00 0.00 0.00 0.00
0.00 0.00 0.00 0.00 0.00 0.00 0.00 0.00 0.00 0.00 0.00 0.00 0.00 0.00 0.00 0.00 0.00 0.00 0.00 0.00 0.00 0.00 0.00 0.00 0.00 0.00 0.00 0.00 0.00 0.00 0.00 0.00 0.00 0.00 0.00 0.00 0.00 0.00 0.00 0.00 0.00 0.00 0.00 0.00
0.00 0.00 0.00 0.00 0.00 0.00 0.00 0.00 0.00 0.00 0.00 0.00 0.00 0.00 0.00 0.00 0.00 0.00 0.00 0.00 0.00 0.00 0.00 0.00 0.00 0.00 0.00 0.00 0.00 0.00 0.00 0.00 0.01 0.02 0.00 0.00 0.00 0.00 0.00 0.00 0.00 0.00 0.00 0.00
0.00 0.00 0.00 0.00 0.00 0.00 0.00 0.00 0.00 0.00 0.00 0.00 0.00 0.00 0.00 0.00 0.00 0.00 0.00 0.00 0.00 0.00 0.00 0.00 0.00 0.00 0.00 0.00 0.00 0.00 0.00 0.01 0.04 0.06 0.02 0.00 0.00 0.00 0.00 0.00 0.00 0.00 0.00 0.00
0.00 0.00 0.00 0.00 0.00 0.00 0.00 0.00 0.00 0.00 0.00 0.00 0.00 0.00 0.00 0.00 0.00 0.00 0.00 0.00 0.00 0.00 0.00 0.00 0.00 0.00 0.00 0.00 0.00 0.00 0.00 0.01 0.04 0.03 0.01 0.00 0.00 0.00 0.00 0.00 0.00 0.00 0.00 0.00
0.00 0.00 0.00 0.00 0.00 0.00 0.00 0.00 0.00 0.00 0.00 0.00 0.00 0.00 0.00 0.00 0.00 0.00 0.00 0.00 0.00 0.00 0.00 0.00 0.00 0.00 0.00 0.00 0.00 0.00 0.00 0.00 0.01 0.02 0.02 0.00 0.00 0.00 0.00 0.00 0.00 0.00 0.00 0.00
0.00 0.00 0.00 0.00 0.00 0.00 0.00 0.00 0.00 0.00 0.00 0.00 0.00 0.00 0.00 0.00 0.00 0.00 0.00 0.00 0.00 0.00 0.00 0.00 0.00 0.00 0.00 0.00 0.00 0.00 0.00 0.00 0.01 0.01 0.02 0.01 0.00 0.00 0.00 0.00 0.00 0.00 0.00 0.00
0.00 0.00 0.00 0.00 0.00 0.00 0.00 0.00 0.00 0.00 0.00 0.00 0.00 0.00 0.00 0.00 0.00 0.00 0.00 0.00 0.00 0.00 0.00 0.00 0.00 0.00 0.00 0.00 0.00 0.00 0.00 0.01 0.02 0.02 0.01 0.02 0.00 0.00 0.00 0.00 0.00 0.00 0.00 0.00
0.00 0.00 0.00 0.00 0.00 0.00 0.00 0.00 0.00 0.00 0.00 0.00 0.00 0.00 0.00 0.00 0.00 0.00 0.00 0.00 0.00 0.00 0.00 0.00 0.00 0.00 0.00 0.00 0.00 0.00 0.00 0.03 0.07 0.02 0.04 0.07 0.02 0.00 0.00 0.00 0.00 0.00 0.00 0.00
0.00 0.00 0.00 0.00 0.00 0.00 0.00 0.00 0.00 0.00 0.00 0.00 0.00 0.00 0.00 0.00 0.00 0.00 0.00 0.00 0.00 0.00 0.00 0.00 0.00 0.00 0.00 0.00 0.00 0.00 0.01 0.05 0.06 0.06 0.06 0.05 0.02 0.00 0.00 0.00 0.00 0.00 0.00 0.00
0.00 0.00 0.00 0.00 0.00 0.00 0.00 0.00 0.00 0.00 0.00 0.00 0.00 0.00 0.00 0.00 0.00 0.00 0.00 0.00 0.00 0.00 0.00 0.00 0.00 0.00 0.00 0.00 0.00 0.00 0.01 0.10 0.14 0.11 0.06 0.03 0.01 0.00 0.00 0.00 0.00 0.00 0.00 0.00
0.00 0.00 0.00 0.00 0.00 0.00 0.00 0.00 0.00 0.00 0.00 0.00 0.00 0.00 0.00 0.00 0.00 0.00 0.00 0.00 0.00 0.00 0.00 0.00 0.00 0.00 0.00 0.00 0.00 0.00 0.03 0.06 0.06 0.09 0.07 0.03 0.00 0.00 0.00 0.00 0.00 0.00 0.00 0.00
0.00 0.00 0.00 0.00 0.00 0.00 0.00 0.00 0.00 0.00 0.00 0.00 0.00 0.00 0.00 0.00 0.00 0.00 0.00 0.00 0.00 0.00 0.00 0.00 0.00 0.00 0.00 0.00 0.00 0.00 0.01 0.04 0.06 0.06 0.04 0.01 0.00 0.00 0.00 0.00 0.00 0.00 0.00 0.01
0.00 0.00 0.00 0.00 0.00 0.00 0.00 0.00 0.00 0.00 0.00 0.00 0.00 0.00 0.00 0.00 0.00 0.00 0.00 0.00 0.00 0.00 0.00 0.00 0.00 0.00 0.00 0.00 0.00 0.01 0.02 0.03 0.08 0.06 0.02 0.01 0.00 0.00 0.00 0.00 0.00 0.00 0.07 0.09
0.03 0.01 0.01 0.00 0.00 0.00 0.00 0.00 0.00 0.00 0.00 0.00 0.00 0.01 0.01 0.01 0.00 0.00 0.00 0.00 0.00 0.00 0.00 0.00 0.00 0.00 0.00 0.00 0.01 0.03 0.05 0.09 0.12 0.04 0.01 0.01 0.02 0.02 0.00 0.00 0.04 0.16 0.17 0.13
0.06 0.03 0.01 0.01 0.00 0.00 0.01 0.00 0.01 0.01 0.00 0.00 0.00 0.00 0.00 0.01 0.01 0.00 0.00 0.00 0.00 0.00 0.00 0.00 0.00 0.00 0.01 0.03 0.05 0.07 0.07 0.07 0.11 0.22 0.26 0.27 0.25 0.23 0.31 0.12 0.16 0.15 0.11 0.11
0.01 0.01 0.02 0.07 0.08 0.02 0.01 0.02 0.01 0.01 0.01 0.01 0.01 0.00 0.00 0.01 0.01 0.01 0.00 0.00 0.00 0.00 0.00 0.00 0.00 0.01 0.01 0.04 0.08 0.08 0.06 0.08 0.26 0.62 0.33 0.16 0.15 0.25 0.19 0.08 0.08 0.08 0.07 0.04
0.02 0.01 0.02 0.03 0.04 0.02 0.01 0.01 0.00 0.01 0.02 0.03 0.02 0.01 0.01 0.01 0.00 0.00 0.00 0.00 0.00 0.00 0.00 0.00 0.01 0.02 0.04 0.06 0.06 0.05 0.05 0.07 0.07 0.07 0.02 0.01 0.00 0.02 0.03 0.03 0.02 0.01 0.01 0.00
0.00 0.01 0.01 0.03 0.04 0.04 0.02 0.01 0.00 0.00 0.01 0.01 0.00 0.00 0.00 0.00 0.00 0.00 0.00 0.00 0.00 0.00 0.00 0.00 0.01 0.02 0.02 0.02 0.04 0.08 0.08 0.07 0.08 0.03 0.02 0.01 0.02 0.01 0.02 0.01 0.00 0.01 0.01 0.00
MSLP
1002.35 1002.86 1003.09 1003.14 1003.47 1003.34 1003.79 1003.71 1004.13 1004.15 1004.76 1005.73 1006.32 1007.45 1007.89 1008.22 1008.71 1008.95 1009.20 1009.66 1010.30 1010.74 1011.00 1011.37 1011.69 1012.27 1012.90 1013.20 1013.87 1014.16 1014.79 1015.20 1015.58 1016.01 1016.31 1016.47 1016.59 1016.44 1016.28 1016.01 1016.21 1016.38 1016.43 1016.57
1002.96 1002.43 1002.04 1002.33 1002.70 1003.07 1003.46 1003.95 1003.52 1003.77 1004.06 1004.91 1006.57 1007.37 1007.40 1007.56 1007.59 1008.02 1008.43 1009.00 1009.62 1010.39 1010.98 1011.47 1011.83 1012.16 1012.72 1013.13 1013.43 1014.03 1014.43 1014.81 1015.10 1015.45 1015.81 1016.06 1016.16 1016.14 1016.04 1015.92 1016.00 1016.08 1016.12 1016.33
1002.33 1001.55 1001.42 1001.89 1001.88 1002.52 1002.61 1002.89 1002.91 1003.11 1004.13 1005.32 1006.65 1008.05 1007.74 1007.33 1007.54 1007.85 1008.03 1007.85 1008.49 1009.44 1010.40 1011.16 1011.68 1012.08 1012.45 1012.92 1013.33 1013.88 1014.17 1014.49 1014.80 1015.11 1015.60 1015.93 1016.04 1016.16 1016.25 1016.16 1016.12 1015.98 1016.03 1016.26
1002.06 1001.13 1001.28 1001.38 1001.50 1001.85 1002.32 1002.19 1001.74 1002.89 1004.07 1005.43 1006.07 1007.58 1007.75 1007.15 1007.33 1007.35 1007.42 1007.63 1008.17 1008.58 1009.24 1010.24 1011.07 1011.72 1012.11 1012.44 1012.84 1013.45 1014.02 1014.35 1014.67 1015.04 1015.41 1015.69 1015.93 1016.38 1016.45 1016.36 1016.37 1016.21 1016.11 1016.30
1000.97 1000.73 1000.64 1000.95 1000.53 1000.98 1001.30 1001.27 1001.79 1002.53 1003.97 1005.20 1006.45 1007.24 1006.53 1007.27 1007.24 1006.71 1006.56 1006.58 1007.07 1007.55 1008.12 1009.14 1009.91 1010.57 1011.22 1011.90 1012.39 1012.81 1013.51 1014.01 1014.32 1014.73 1015.05 1015.66 1016.17 1016.24 1016.24 1016.40 1016.48 1016.43 1016.33 1016.19
1000.72 1000.01 1000.00 1000.00 999.80 1000.21 1000.22 1001.12 1001.66 1003.60 1005.04 1006.19 1005.73 1006.34 1006.63 1006.25 1005.12 1005.26 1005.71 1005.88 1006.29 1006.97 1007.48 1008.04 1008.74 1009.66 1010.33 1011.13 1011.99 1012.50 1013.06 1013.53 1013.97 1014.43 1014.92 1015.39 1016.06 1016.41 1016.52 1016.66 1016.82 1016.68 1016.45 1016.36
1000.68 1000.02 999.56 999.28 999.75 999.75 1000.48 1001.73 1003.04 1004.51 1005.71 1005.91 1005.11 1005.90 1004.34 1003.77 1003.54 1003.60 1003.83 1004.41 1005.12 1005.89 1006.70 1007.51 1008.43 1009.16 1009.85 1010.47 1011.19 1011.72 1012.27 1013.02 1013.65 1014.19 1014.59 1015.07 1015.61 1016.00 1016.28 1016.50 1016.76 1016.83 1016.76 1016.80
1000.92 1000.09 999.08 998.80 999.16 999.50 1000.37 1001.45 1003.24 1004.32 1005.27 1005.01 1004.58 1003.85 1001.82 1001.25 1000.99 1001.96 1002.48 1003.09 1004.17 1005.07 1005.68 1006.38 1007.19 1007.90 1008.42 1009.12 1010.02 1010.97 1011.43 1012.06 1012.89 1013.60 1014.02 1014.48 1014.96 1015.56 1015.84 1016.06 1016.40 1016.65 1016.83 1016.79
1000.70 999.91 998.70 998.10 998.40 998.91 999.83 1000.91 1001.66 1003.44 1004.98 1005.16 1004.09 1002.75 1001.00 1000.05 1000.75 1001.47 1002.02 1002.95 1003.57 1004.23 1005.02 1005.87 1006.29 1006.82 1007.89 1008.62 1009.11 1009.75 1010.60 1011.25 1011.90 1012.97 1013.81 1014.17 1014.58 1015.18 1015.60 1015.87 1016.17 1016.39 1016.54 1016.62
999.81 1000.31 998.45 997.80 998.01 998.06 998.47 999.62 1001.85 1003.47 1004.75 1005.33 1004.53 1003.46 1001.99 1001.10 1000.88 1001.17 1001.76 1002.25 1002.98 1003.59 1004.42 1005.16 1005.73 1006.53 1007.04 1007.53 1008.17 1009.04 1010.00 1010.67 1011.58 1012.51 1013.65 1014.05 1014.38 1014.71 1015.10 1015.48 1015.82 1016.03 1016.30 1016.40
998.98 999.79 998.63 998.21 997.69 997.95 998.59 999.51 1001.09 1002.56 1003.98 1004.70 1004.60 1003.64 1000.85 1000.48 1000.15 1000.78 1001.16 1001.46 1002.54 1003.29 1003.66 1004.25 1005.14 1005.59 1005.99 1006.81 1007.68 1008.43 1009.74 1010.60 1011.24 1011.79 1013.01 1013.20 1013.98 1014.42 1014.74 1015.20 1015.46 1015.64 1015.94 1016.23
997.69 998.90 999.23 998.27 997.38 996.95 997.12 998.51 1000.12 1002.19 1003.81 1004.02 1003.65 1002.32 1000.05 999.41 999.28 999.98 1001.04 1001.35 1001.85 1002.71 1003.09 1003.65 1004.19 1004.90 1005.66 1006.33 1007.22 1008.08 1009.15 1010.24 1010.52 1011.04 1012.59 1012.70 1013.52 1014.07 1014.40 1014.78 1014.95 1015.23 1015.56 1015.83
996.33 997.82 999.04 998.52 997.65 996.61 996.89 997.74 998.97 1000.33 1001.77 1002.98 1003.43 1001.86 1000.31 1000.18 999.92 1000.16 1000.61 1001.29 1001.73 1002.49 1003.33 1003.49 1004.05 1004.58 1005.13 1005.69 1006.60 1007.47 1008.38 1009.27 1010.23 1010.92 1011.80 1012.34 1013.10 1013.44 1013.74 1014.14 1014.37 1014.66 1014.94 1015.21
995.03 996.69 997.69 997.81 997.21 996.68 996.49 996.83 997.73 999.10 1001.20 1001.91 1001.72 1001.26 1000.85 1000.75 1000.42 1000.76 1000.91 1001.30 1001.40 1001.83 1002.29 1002.83 1003.47 1003.97 1004.35 1005.08 1005.91 1006.68 1007.74 1008.60 1009.40 1010.39 1011.19 1012.12 1012.59 1012.71 1013.19 1013.41 1013.89 1014.06 1014.26 1014.67
994.64 996.47 996.91 996.77 996.29 996.02 995.67 995.80 996.75 998.04 998.93 1000.03 1000.23 1000.49 1000.31 1000.03 999.81 999.78 999.96 1000.31 1001.15 1001.78 1002.21 1002.44 1003.04 1003.64 1004.07 1004.70 1005.41 1006.31 1007.38 1008.26 1008.97 1009.79 1010.52 1011.46 1011.68 1012.02 1012.50 1012.82 1013.14 1013.55 1013.75 1014.10
994.58 995.79 996.27 996.83 996.14 995.85 995.10 994.93 995.50 996.54 997.77 998.59 998.86 999.26 998.88 998.99 999.47 999.85 999.87 1000.19 1000.58 1001.19 1001.68 1002.31 1002.66 1003.23 1003.49 1003.72 1004.66 1005.66 1006.36 1007.50 1008.35 1009.17 1009.91 1011.04 1011.39 1011.73 1011.97 1012.23 1012.46 1012.90 1013.22 1013.67
995.10 996.12 996.88 997.15 996.31 996.04 995.50 994.53 994.94 995.66 996.75 997.62 998.76 998.09 998.59 999.37 999.59 999.68 999.97 1000.28 1000.22 1000.54 1001.14 1001.75 1002.16 1002.43 1002.79 1003.31 1003.89 1005.08 1005.98 1006.78 1007.64 1008.38 1008.89 1010.09 1010.53 1010.91 1011.36 1011.49 1011.84 1012.23 1012.93 1013.19
995.61 996.25 997.33 997.70 997.08 996.46 995.33 994.24 994.81 996.78 997.45 997.75 997.85 997.45 997.77 997.74 998.53 999.11 999.26 999.58 999.87 1000.07 1000.48 1000.94 1001.66 1002.16 1002.18 1002.29 1003.44 1004.69 1005.83 1006.66 1007.59 1008.75 1009.56 1009.60 1009.79 1010.03 1010.51 1010.95 1011.20 1011.79 1012.23 1012.74
996.08 996.57 998.76 999.13 998.32 997.51 996.56 997.05 996.78 996.56 998.69 998.27 998.11 997.40 997.66 998.17 998.84 999.55 999.45 999.00 999.19 999.61 1000.15 1000.55 1000.85 1001.44 1001.67 1002.09 1002.70 1004.09 1005.41 1006.19 1007.04 1008.23 1008.64 1009.01 1009.10 1009.36 1009.94 1010.56 1010.80 1011.38 1012.02 1012.34
997.13 997.33 997.93 999.82 999.81 999.36 999.35 998.07 997.41 997.03 999.28 998.79 998.70 998.50 998.52 998.56 999.77 1000.03 999.37 999.10 999.53 999.93 999.98 1000.39 1000.89 1001.38 1001.91 1002.45 1003.12 1004.01 1004.93 1005.83 1006.91 1007.62 1007.93 1008.20 1008.09 1008.63 1009.42 1010.09 1010.52 1010.84 1011.15 1011.48
1000.16 1000.11 1000.58 1001.31 1001.36 1000.93 1000.19 999.31 997.80 999.43 1001.66 999.96 999.06 999.52 999.67 999.95 1000.29 1000.05 999.90 999.79 999.60 999.77 1000.04 1000.61 1001.22 1001.63 1002.05 1002.30 1003.08 1004.09 1005.23 1006.17 1006.89 1007.68 1007.78 1008.37 1008.38 1008.79 1009.04 1009.50 1009.93 1010.19 1010.98 1011.79
1002.40 1002.87 1003.48 1003.18 1002.80 1003.12 1001.44 1000.06 1000.72 1002.30 1001.31 1000.56 1000.17 1000.39 1000.48 1000.44 1000.71 1001.01 1000.66 1000.72 1000.45 1000.54 1000.63 1000.99 1002.27 1002.72 1002.93 1003.27 1004.35 1005.31 1006.45 1006.89 1007.22 1007.62 1008.55 1009.30 1009.77 1009.27 1008.59 1009.01 1009.66 1010.39 1011.09 1011.60
1003.48 1003.60 1004.52 1005.90 1005.80 1004.87 1003.82 1003.36 1002.93 1002.72 1001.96 1002.37 1001.37 1001.51 1001.42 1001.62 1001.83 1002.00 1001.79 1002.22 1001.78 1001.30 1002.02 1002.17 1002.61 1003.22 1003.54 1003.91 1004.58 1005.84 1007.06 1007.19 1007.69 1008.25 1008.56 1008.40 1009.85 1011.18 1009.83 1009.23 1009.77 1010.72 1011.15 1011.42
1004.16 1004.92 1004.61 1005.49 1006.18 1005.48 1004.21 1003.58 1002.81 1002.67 1002.36 1002.85 1002.54 1002.73 1002.30 1002.13 1002.16 1001.76 1001.47 1001.88 1002.47 1002.93 1003.17 1003.30 1003.52 1003.72 1004.36 1004.73 1005.66 1006.37 1007.07 1007.75 1008.18 1008.74 1008.67 1009.56 1009.77 1009.67 1008.83 1009.47 1010.33 1010.35 1010.78 1011.27
1003.74 1003.81 1005.78 1005.98 1004.56 1005.58 1004.68 1003.15 1003.48 1002.75 1001.99 1002.75 1003.56 1003.73 1003.10 1002.44 1002.97 1003.07 1003.17 1003.67 1003.72 1003.37 1003.81 1004.39 1004.36 1004.54 1005.32 1006.16 1006.60 1006.88 1007.32 1007.52 1008.13 1008.57 1008.46 1008.65 1009.73 1009.91 1010.10 1010.63 1010.90 1010.62 1010.95 1011.10
1004.54 1004.56 1004.53 1005.41 1004.84 1005.70 1004.82 1004.23 1003.27 1002.64 1002.89 1003.62 1003.95 1003.63 1003.86 1002.81 1003.20 1002.72 1002.97 1003.68 1003.61 1003.93 1004.20 1004.57 1005.31 1005.31 1005.73 1006.25 1006.66 1007.08 1007.13 1007.26 1007.71 1008.04 1007.78 1008.28 1008.93 1009.72 1010.63 1011.05 1011.62 1011.84 1011.97 1011.56
Thickness
5839 5814 5804 5822 5828 5830 5826 5823 5815 5832 5839 5822 5817 5811 5821 5828 5825 5822 5824 5820 5816 5813 5820 5822 5822 5819 5813 5812 5807 5805 5801 5798 5795 5789 5785 5783 5780 5780 5781 5781 5777 5774 5772 5769
5815 5803 5837 5847 5843 5831 5825 5813 5820 5836 5845 5831 5813 5807 5826 5830 5828 5828 5827 5824 5821 5815 5813 5816 5817 5818 5813 5810 5810 5806 5804 5801 5799 5795 5790 5786 5784 5782 5780 5779 5776 5774 5771 5768
5805 5829 5851 5843 5836 5823 5823 5817 5825 5824 5836 5829 5812 5788 5805 5825 5831 5829 5831 5837 5833 5822 5816 5815 5814 5814 5815 5811 5808 5804 5803 5802 5800 5797 5791 5786 5783 5780 5775 5774 5773 5772 5769 5765
5813 5843 5834 5831 5827 5830 5799 5837 5852 5835 5821 5782 5817 5763 5790 5814 5814 5822 5828 5832 5832 5830 5828 5822 5817 5812 5812 5813 5812 5808 5803 5800 5798 5795 5789 5784 5777 5771 5771 5770 5769 5768 5765 5760
5813 5824 5824 5816 5833 5842 5826 5850 5845 5843 5823 5805 5799 5769 5808 5801 5801 5817 5828 5839 5839 5838 5835 5827 5825 5821 5818 5816 5813 5811 5805 5799 5797 5792 5788 5780 5774 5773 5771 5767 5764 5762 5761 5758
5818 5848 5836 5837 5853 5849 5862 5846 5833 5815 5793 5759 5797 5791 5774 5790 5820 5829 5832 5843 5843 5839 5837 5837 5836 5829 5822 5820 5813 5809 5804 5798 5795 5790 5785 5779 5772 5767 5763 5760 5755 5754 5753 5752
5805 5817 5838 5851 5830 5845 5842 5806 5768 5771 5758 5752 5791 5786 5809 5824 5840 5842 5843 5846 5847 5844 5841 5835 5828 5825 5821 5817 5813 5809 5804 5795 5790 5786 5783 5778 5771 5764 5759 5755 5751 5748 5745 5743
5761 5769 5819 5840 5828 5821 5817 5807 5759 5750 5749 5774 5807 5787 5821 5856 5868 5858 5858 5854 5850 5847 5844 5838 5832 5831 5830 5826 5818 5811 5806 5800 5792 5786 5783 5778 5772 5763 5758 5754 5749 5744 5740 5738
5753 5770 5829 5839 5847 5839 5823 5794 5823 5786 5787 5769 5791 5817 5844 5862 5856 5854 5848 5847 5843 5845 5841 5838 5840 5839 5833 5828 5824 5817 5809 5804 5799 5786 5778 5775 5770 5763 5757 5752 5748 5743 5739 5735
5788 5765 5814 5837 5844 5844 5835 5839 5791 5771 5757 5756 5771 5789 5791 5830 5838 5846 5844 5845 5844 5845 5840 5839 5838 5830 5832 5833 5831 5823 5811 5804 5797 5788 5773 5771 5767 5762 5756 5751 5744 5739 5734 5730
5800 5782 5799 5824 5810 5812 5817 5810 5805 5800 5775 5753 5746 5771 5830 5832 5846 5842 5848 5855 5843 5838 5846 5848 5839 5837 5836 5832 5827 5822 5808 5798 5792 5789 5773 5772 5763 5757 5753 5746 5741 5736 5730 5724
5802 5779 5775 5795 5828 5847 5837 5820 5809 5774 5774 5772 5766 5774 5849 5851 5854 5855 5848 5852 5849 5844 5843 5848 5843 5838 5833 5828 5824 5817 5808 5796 5794 5787 5771 5770 5759 5752 5748 5743 5738 5733 5726 5720
5808 5768 5764 5774 5803 5829 5822 5828 5820 5803 5790 5773 5762 5776 5838 5842 5842 5844 5843 5845 5848 5846 5838 5839 5837 5834 5831 5829 5823 5816 5809 5799 5788 5779 5771 5765 5755 5751 5746 5740 5735 5730 5724 5718
5824 5779 5777 5767 5781 5811 5813 5827 5827 5811 5774 5776 5781 5805 5821 5824 5830 5835 5839 5840 5844 5846 5846 5842 5836 5833 5836 5833 5825 5817 5805 5796 5787 5777 5768 5757 5750 5748 5742 5738 5730 5727 5722 5714
5815 5774 5787 5797 5821 5821 5826 5833 5822 5809 5808 5798 5805 5806 5813 5825 5835 5842 5844 5845 5839 5837 5837 5840 5834 5830 5829 5825 5819 5812 5800 5790 5781 5773 5767 5756 5750 5746 5739 5734 5730 5723 5718 5712
5803 5783 5794 5795 5818 5818 5824 5832 5838 5829 5822 5820 5816 5809 5833 5844 5841 5835 5842 5840 5837 5835 5836 5834 5834 5831 5827 5827 5818 5808 5801 5789 5779 5771 5764 5751 5745 5738 5735 5730 5727 5721 5715 5707
5791 5788 5774 5775 5806 5806 5794 5816 5827 5835 5827 5825 5793 5823 5832 5828 5831 5830 5831 5832 5834 5835 5835 5829 5829 5830 5827 5822 5818 5807 5797 5787 5777 5770 5763 5751 5743 5738 5730 5727 5724 5718 5708 5701
5783 5783 5775 5774 5788 5757 5804 5837 5836 5809 5811 5814 5826 5833 5841 5842 5840 5836 5837 5833 5832 5835 5834 5832 5825 5820 5824 5824 5815 5801 5787 5778 5771 5758 5750 5748 5743 5737 5729 5723 5719 5711 5703 5694
5787 5781 5749 5750 5763 5787 5809 5800 5806 5804 5788 5813 5812 5832 5834 5834 5832 5826 5833 5840 5837 5835 5832 5830 5829 5824 5823 5822 5812 5796 5782 5774 5763 5751 5747 5740 5738 5733 5724 5716 5710 5702 5694 5687
5779 5777 5770 5747 5756 5749 5770 5794 5812 5817 5759 5801 5809 5812 5817 5822 5787 5797 5828 5831 5826 5825 5826 5824 5823 5820 5813 5807 5802 5791 5779 5767 5755 5747 5742 5738 5737 5730 5718 5708 5702 5696 5692 5687
5725 5732 5731 5729 5730 5742 5766 5784 5810 5753 5744 5789 5804 5802 5803 5794 5797 5809 5815 5817 5820 5820 5819 5817 5815 5809 5805 5801 5791 5777 5764 5755 5746 5737 5734 5725 5723 5718 5708 5701 5696 5694 5686 5674
5700 5705 5701 5710 5722 5715 5759 5774 5755 5751 5767 5780 5788 5786 5785 5788 5790 5792 5797 5799 5803 5804 5806 5803 5789 5786 5788 5783 5772 5757 5742 5737 5732 5726 5715 5705 5696 5696 5697 5693 5690 5679 5669 5666
5691 5697 5693 5685 5686 5712 5728 5736 5746 5745 5756 5759 5769 5773 5776 5775 5773 5775 5776 5776 5783 5789 5784 5782 5777 5771 5770 5765 5756 5738 5726 5724 5715 5708 5698 5695 5678 5671 5673 5675 5678 5666 5663 5658
5690 5685 5685 5689 5692 5703 5720 5732 5740 5745 5748 5747 5752 5751 5757 5756 5759 5767 5773 5768 5766 5764 5763 5763 5761 5757 5749 5744 5734 5725 5719 5711 5703 5694 5690 5676 5675 5677 5685 5674 5664 5662 5657 5649
5685 5689 5674 5679 5698 5694 5710 5727 5727 5741 5749 5741 5733 5732 5737 5745 5739 5746 5748 5746 5747 5752 5750 5746 5746 5740 5728 5718 5713 5709 5703 5701 5695 5685 5682 5677 5663 5661 5659 5652 5646 5652 5643 5640
5674 5677 5675 5671 5690 5684 5693 5707 5727 5735 5732 5729 5723 5725 5723 5735 5733 5745 5740 5737 5740 5737 5735 5731 5724 5722 5715 5707 5700 5694 5692 5689 5682 5678 5677 5670 5659 5647 5638 5632 5628 5623 5619 5617